Saint Francisville, IL

1:53 AM CST on February 22, 2017 (GMT -0600)
Mount Carmel Municipal

Weather History for KAJG - March, 2014

Change the Weather History Date:

Sunday, March 2, 2014

  Actual Average (KLWV) Record (KLWV)
Temperature  
Mean Temperature 22 °F -  
Max Temperature 32 °F 45 °F 73 °F (2012)
Min Temperature 12 °F 29 °F 10 °F (2015)
Degree Days  
Heating Degree Days 43    
Moisture  
Dew Point 20 °F    
Average Humidity 88    
Maximum Humidity 93    
Minimum Humidity 79    
Precipitation  
Precipitation 0.14 in - - ()
Sea Level Pressure  
Sea Level Pressure 30.24 in    
Wind  
Wind Speed 12 mph (North)    
Max Wind Speed 17 mph    
Max Gust Speed 25 mph    
Visibility 6 miles    
Events Rain , Snow , Thunderstorm    
Averages and records for this station are not official NWS values.
T = Trace of Precipitation, MM = Missing Value Source: NWS Daily Summary

Daily Weather History Graph

Daily Weather History Graph

Search for Another Location

Airport or City:

Trip Planner

Search our weather history database for the weather conditions in past years. The results will help you decide how hot, cold, wet, or windy it might be!

Date:

Astronomy

Mar. 02, 2014 Rise Set
Actual Time 6:21 AM CST 5:44 PM CST
Civil Twilight 5:55 AM CST 6:11 PM CST
Nautical Twilight 5:24 AM CST 6:42 PM CST
Astronomical Twilight 4:53 AM CST 7:13 PM CST
Moon 6:54 AM CST (3/2) 7:39 PM CST (3/2)
Length of Visible Light 12h 16m
Length of Day
11h 23m
Waxing Crescent, 3% of the Moon is Illuminated
Mar 2
Waxing Crescent
Mar 8
First Quarter
Mar 16
Full
Mar 23
Last Quarter
Mar 30
New

Hourly Weather History & Observations

Time (CST) Temp. Windchill Dew Point Humidity Pressure Visibility Wind Dir Wind Speed Gust Speed Precip Events Conditions
12:15 AM 32.0 °F 23.6 °F 28.4 °F 87% 30.20 in 4.0 mi NNW 10.4 mph - N/A Rain Light Rain
12:35 AM 32.0 °F 23.6 °F 28.4 °F 87% 30.19 in 5.0 mi North 10.4 mph - N/A   Light Drizzle
12:55 AM 30.2 °F 21.3 °F 28.4 °F 93% 30.18 in 5.0 mi North 10.4 mph - N/A   Overcast
1:15 AM 30.2 °F 21.3 °F 28.4 °F 93% 30.19 in 4.0 mi North 10.4 mph - N/A   Overcast
1:35 AM 30.2 °F 21.3 °F 28.4 °F 93% 30.18 in 3.0 mi NNE 10.4 mph - N/A   Overcast
1:55 AM 30.2 °F 21.9 °F 28.4 °F 93% 30.17 in 4.0 mi North 9.2 mph - N/A   Overcast
2:15 AM 30.2 °F 23.4 °F 28.4 °F 93% 30.15 in 4.0 mi North 6.9 mph - N/A   Overcast
2:35 AM 30.2 °F 23.4 °F 28.4 °F 93% 30.16 in 4.0 mi NNE 6.9 mph - N/A   Overcast
2:55 AM 30.2 °F 20.8 °F 28.4 °F 93% 30.17 in 5.0 mi North 11.5 mph - 0.01 in   Overcast
3:15 AM 30.2 °F 21.3 °F 26.6 °F 86% 30.17 in 7.0 mi North 10.4 mph - N/A   Overcast
3:35 AM 28.4 °F 19.1 °F 26.6 °F 93% 30.17 in 7.0 mi North 10.4 mph - N/A   Overcast
3:55 AM 28.4 °F 19.7 °F 26.6 °F 93% 30.17 in 7.0 mi North 9.2 mph - N/A   Overcast
4:15 AM 28.4 °F 19.1 °F 26.6 °F 93% 30.18 in 10.0 mi North 10.4 mph - N/A   Overcast
4:35 AM 28.4 °F 18.5 °F 26.6 °F 93% 30.16 in 7.0 mi NNE 11.5 mph - N/A   Overcast
4:55 AM 28.4 °F 19.7 °F 26.6 °F 93% 30.16 in 5.0 mi NNE 9.2 mph - N/A   Overcast
5:15 AM 28.4 °F 18.5 °F 26.6 °F 93% 30.15 in 7.0 mi NNE 11.5 mph 21.9 mph N/A   Overcast
5:35 AM 28.4 °F 18.5 °F 24.8 °F 86% 30.17 in 10.0 mi North 11.5 mph 21.9 mph N/A   Overcast
5:55 AM 28.4 °F 18.0 °F 26.6 °F 93% 30.17 in 7.0 mi NNE 12.7 mph 20.7 mph N/A Snow Light Snow
6:15 AM 28.4 °F 17.0 °F 24.8 °F 86% 30.17 in 5.0 mi NNE 15.0 mph 18.4 mph N/A   Overcast
6:35 AM 28.4 °F 19.1 °F 26.6 °F 93% 30.20 in 2.5 mi North 10.4 mph - N/A Snow Light Snow
6:55 AM 28.4 °F 18.5 °F 24.8 °F 86% 30.18 in 1.8 mi NNE 11.5 mph - 0.02 in Snow Light Snow
7:15 AM 26.6 °F 14.7 °F 24.8 °F 93% 30.21 in 2.0 mi NNE 15.0 mph - 0.01 in Snow Light Snow
7:35 AM 26.6 °F 16.2 °F 23.0 °F 86% 30.22 in 2.0 mi North 11.5 mph - 0.02 in Snow Light Snow
7:55 AM 26.6 °F 14.7 °F 23.0 °F 86% 30.21 in 4.0 mi North 15.0 mph - 0.03 in Snow Light Snow
8:15 AM 26.6 °F 14.7 °F 23.0 °F 86% 30.21 in 4.0 mi North 15.0 mph - 0.01 in Snow , Thunderstorm Light Thunderstorms and Snow
8:35 AM 26.6 °F 15.2 °F 23.0 °F 86% 30.22 in 4.0 mi North 13.8 mph 20.7 mph 0.02 in Snow Light Snow
8:55 AM 26.6 °F 14.3 °F 23.0 °F 86% 30.23 in 4.0 mi North 16.1 mph 20.7 mph 0.03 in   Overcast
9:15 AM 24.8 °F 14.0 °F 21.2 °F 86% 30.26 in 10.0 mi North 11.5 mph 18.4 mph N/A   Overcast
9:35 AM 24.8 °F 13.4 °F 21.2 °F 86% 30.25 in 10.0 mi North 12.7 mph - N/A   Overcast
9:55 AM 23.0 °F 11.7 °F 21.2 °F 93% 30.26 in 10.0 mi North 11.5 mph - N/A   Overcast
10:15 AM 24.8 °F 13.4 °F 21.2 °F 86% 30.25 in 10.0 mi North 12.7 mph - N/A   Overcast
10:35 AM 24.8 °F 12.9 °F 21.2 °F 86% 30.24 in 10.0 mi North 13.8 mph - N/A   Overcast
10:55 AM 24.8 °F 14.0 °F 21.2 °F 86% 30.26 in 10.0 mi North 11.5 mph - N/A   Overcast
11:15 AM 24.8 °F 12.9 °F 21.2 °F 86% 30.26 in 10.0 mi North 13.8 mph - N/A   Overcast
11:35 AM 24.8 °F 12.9 °F 21.2 °F 86% 30.25 in 10.0 mi North 13.8 mph 19.6 mph N/A   Overcast
11:55 AM 24.8 °F 12.9 °F 21.2 °F 86% 30.26 in 10.0 mi North 13.8 mph 18.4 mph N/A   Overcast
12:15 PM 26.6 °F 16.2 °F 21.2 °F 80% 30.26 in 10.0 mi North 11.5 mph - N/A   Overcast
12:35 PM 24.8 °F 12.9 °F 21.2 °F 86% 30.25 in 10.0 mi North 13.8 mph - N/A   Overcast
12:55 PM 24.8 °F 12.9 °F 21.2 °F 86% 30.23 in 10.0 mi North 13.8 mph - N/A   Overcast
1:15 PM 23.0 °F 10.1 °F 19.4 °F 86% 30.23 in 10.0 mi North 15.0 mph - N/A   Overcast
1:35 PM 23.0 °F 10.6 °F 19.4 °F 86% 30.23 in 10.0 mi North 13.8 mph - N/A   Overcast
2:00 PM 23.0 °F 11.1 °F 19.4 °F 86% 30.23 in 10.0 mi North 12.7 mph 17.3 mph N/A   Overcast
2:15 PM 23.0 °F 10.6 °F 19.4 °F 86% 30.22 in 10.0 mi North 13.8 mph - N/A   Overcast
2:35 PM 23.0 °F 10.6 °F 19.4 °F 86% 30.24 in 10.0 mi North 13.8 mph - N/A Snow Light Snow
2:55 PM 23.0 °F 10.1 °F 19.4 °F 86% 30.25 in 2.5 mi North 15.0 mph 19.6 mph 0.01 in Snow Light Snow
3:15 PM 21.2 °F 7.3 °F 19.4 °F 93% 30.26 in 1.8 mi North 16.1 mph - 0.01 in Snow Light Snow
3:35 PM 21.2 °F 8.9 °F 19.4 °F 93% 30.25 in 1.5 mi North 12.7 mph 20.7 mph 0.02 in Snow Light Snow
3:55 PM 21.2 °F 6.8 °F 17.6 °F 86% 30.24 in 2.0 mi North 17.3 mph 21.9 mph 0.03 in Snow Light Snow
4:15 PM 21.2 °F 7.8 °F 17.6 °F 86% 30.23 in 5.0 mi North 15.0 mph - N/A   Overcast
4:35 PM 19.4 °F 4.5 °F 15.8 °F 86% 30.24 in 10.0 mi North 17.3 mph 25.3 mph N/A Snow Light Snow
4:55 PM 19.4 °F 6.6 °F 15.8 °F 86% 30.25 in 10.0 mi North 12.7 mph - N/A Snow Light Snow
5:15 PM 19.4 °F 5.5 °F 15.8 °F 86% 30.25 in 7.0 mi North 15.0 mph 21.9 mph N/A Snow Light Snow
5:35 PM 19.4 °F 6.6 °F 15.8 °F 86% 30.28 in 7.0 mi NNW 12.7 mph 19.6 mph N/A Snow Light Snow
5:55 PM 19.4 °F 5.5 °F 14.0 °F 80% 30.31 in 10.0 mi NNW 15.0 mph - N/A Snow Light Snow
6:15 PM 17.6 °F 3.7 °F 14.0 °F 86% 30.31 in 4.0 mi NNW 13.8 mph 18.4 mph N/A Snow Light Snow
6:35 PM 17.6 °F 3.2 °F 14.0 °F 86% 30.29 in 5.0 mi North 15.0 mph - N/A Snow Light Snow
6:55 PM 17.6 °F 5.0 °F 14.0 °F 86% 30.30 in 1.8 mi North 11.5 mph 18.4 mph 0.01 in Snow Light Snow
7:15 PM 17.6 °F 2.7 °F 12.2 °F 79% 30.29 in 1.5 mi North 16.1 mph 23.0 mph N/A Snow Light Snow
7:35 PM 15.8 °F 2.1 °F 12.2 °F 86% 30.28 in 2.0 mi North 12.7 mph - N/A Snow Light Snow
7:55 PM 15.8 °F 0.9 °F 12.2 °F 86% 30.27 in 3.0 mi North 15.0 mph 19.6 mph N/A Snow Light Snow
8:15 PM 15.8 °F 1.4 °F 12.2 °F 86% 30.28 in 2.5 mi North 13.8 mph 20.7 mph N/A Snow Light Snow
8:35 PM 14.0 °F -2.0 °F 12.2 °F 93% 30.29 in 2.0 mi North 16.1 mph - N/A Snow Light Snow
8:55 PM 14.0 °F -0.2 °F 10.4 °F 86% 30.30 in 1.8 mi North 12.7 mph 18.4 mph N/A Snow Light Snow
9:15 PM 14.0 °F -0.2 °F 10.4 °F 86% 30.32 in 1.5 mi North 12.7 mph 24.2 mph N/A Snow Light Snow
9:35 PM 14.0 °F 1.2 °F 10.4 °F 86% 30.31 in 1.5 mi North 10.4 mph - N/A Snow Light Snow
9:55 PM 14.0 °F -0.2 °F 10.4 °F 86% 30.29 in 1.5 mi North 12.7 mph 17.3 mph N/A Snow Light Snow
10:15 PM 14.0 °F 1.2 °F 10.4 °F 86% 30.29 in 2.0 mi North 10.4 mph - N/A Snow Light Snow
10:35 PM 14.0 °F 1.2 °F 10.4 °F 86% 30.31 in 2.5 mi North 10.4 mph 16.1 mph N/A Snow Light Snow
10:55 PM 12.2 °F -0.2 °F 10.4 °F 92% 30.29 in 2.5 mi North 9.2 mph - N/A Snow Light Snow
11:15 PM 14.0 °F 1.2 °F 10.4 °F 86% 30.30 in 3.0 mi North 10.4 mph - N/A Snow Light Snow
11:35 PM 14.0 °F 1.2 °F 10.4 °F 86% 30.29 in 4.0 mi North 10.4 mph - N/A Snow Light Snow
11:55 PM 14.0 °F -0.2 °F 8.6 °F 79% 30.30 in 4.0 mi North 12.7 mph 19.6 mph N/A Snow Light Snow